Regional Weather Roundup
Issued by NWS Jackson, KY

Home | Current Version | Previous Version | Graphics & Text | Print | Product List | Glossary On
Versions: 1 2 3 4 5 6 7 8 9 10 11 12 13 14 15 16 17 18 19 20 21 22 23 24 25 26 27
000
ASUS43 KJKL 212210
RWRJKL

EAST KENTUCKY HOURLY WEATHER ROUNDUP
NATIONAL WEATHER SERVICE JACKSON KY
600 PM EDT SAT OCT 21 2017

NOTE: "FAIR" INDICATES FEW OR NO CLOUDS BELOW 12,000 FEET WITH
NO SIGNIFICANT WEATHER AND/OR OBSTRUCTIONS TO VISIBILITY.

* THESE REPORTS ARE NOT UNDER NWS QUALITY CONTROL AND MAY NOT
  REPORT WEATHER SUCH AS PRECIPITATION AND FOG.

KYZ079-080-083-085-087-088-110-112-115-119-120-212300
...EASTERN KENTUCKY...

CITY           SKY/WX    TMP DP  RH WIND       PRES   REMARKS
JACKSON        PTCLDY    72  49  44 CALM      30.26F
LONDON         CLOUDY    72  45  37 SE5       30.24F
SOMERSET*      PTCLDY    72  43  35 S3        30.24F
MONTICELLO*    CLOUDY    72  50  45 SE8       30.24S
WILLIAMSBURG*  CLOUDY    73  48  40 SE3       30.24F
MIDDLESBORO*   CLEAR     72  54  53 SW3       30.26S
HARLAN APT*    CLOUDY    73  41  31 CALM      30.27F
PIKE CO APT*     N/A     72  50  45 NE3       30.27F
BIG SANDY APT* PTCLDY    74  49  40 CALM      30.27S
MOREHEAD APT*  MOCLDY    73  52  46 VRB5      30.25F
$$

KYZ035-036-041-042-044-050-067-078-099-212300
...CENTRAL KENTUCKY...

CITY           SKY/WX    TMP DP  RH WIND       PRES   REMARKS
MT STERLING*   PTCLDY    73  46  38 S5        30.25S
FLEMING/MASON* PTCLDY    73  48  41 S5        30.25R
DANVILLE*      PTCLDY    70  46  43 SE3       30.23F
LEXINGTON      PTCLDY    72  48  42 S3        30.22F
FRANKFORT      PTCLDY    72  45  37 S6        30.20S
LOUISVILLE     MOCLDY    75  48  38 S10       30.17F
LEBANON*         N/A     72  48  43 CALM      30.20F
GLASGOW*       PTSUNNY   74  50  43 CALM      30.18F
BOWLING GREEN  SUNNY     73  58  59 SE6       30.17F
$$

KYZ091>093-OHZ055-061-077-WVZ005-015-034-035-042-212300
...SOUTHERN OHIO/WEST VIRGINIA...

CITY           SKY/WX    TMP DP  RH WIND       PRES   REMARKS
COVINGTON      MOCLDY    68  53  58 S5        30.20F
COLUMBUS       MOCLDY    73  53  49 SE9       30.21S
DAYTON         MOCLDY    69  49  48 S13       30.21F
WILMINGTON     CLEAR     68  51  54 S5        30.22S
HUNTINGTON     PTCLDY    73  52  47 SE3       30.24S
CHARLESTON     PTCLDY    75  50  41 CALM      30.27R
PINEVILLE*     CLOUDY    65  48  54 MISG      30.34S
BECKLEY        PTCLDY    71  47  42 E5        30.33R
BLUEFIELD      PTCLDY    68  42  38 S3        30.35R
LOGAN CO APT*    N/A     73  46  38 CALM      30.29S
$$

VAZ002-007-008-TNZ017-027-036-066-071-212300
...SOUTHWEST VIRGINIA/EAST TENNESSEE...

CITY           SKY/WX    TMP DP  RH WIND       PRES   REMARKS
WISE*          CLOUDY    70  43  37 CALM      30.34S
JONESVILLE*      N/A     75  46  35 CALM      30.29S
ABINGDON*      CLOUDY    75  40  28 NE3       30.30S
BRISTOL        MOCLDY    76  43  30 NW5       30.27S
MORRISTOWN*    CLEAR     73  50  43 N3        30.26S
SEVIERVILLE*   CLEAR     75  54  46 CALM      30.25S
KNOXVILLE      CLOUDY    73  54  51 NE3       30.24S
LAFOLLETTE*    CLEAR     73  52  46 CALM      30.29S
OAK RIDGE      CLEAR     74  54  49 CALM      30.26S
CROSSVILLE     CLOUDY    68  48  48 VRB3      30.26F
NASHVILLE      PTSUNNY   77  57  50 SE8       30.17S
$$

...KEY TO REMARKS...
VSB - VISIBILITY IN MILES
WCI - WIND CHILL INDEX
HX  - HEAT INDEX

$$




USA.gov is the U.S. government's official web portal to all federal, state and local government web resources and services.